Socorro, NM

11:19 AM MST on February 20, 2018 (GMT -0700)
Socorro Municipal

Weather History for KONM - May, 2013

Change the Weather History Date:

Wednesday, May 29, 2013

  Actual Average Record
Temperature  
Mean Temperature 76 °F -  
Max Temperature 88 °F 86 °F 91 °F (2011)
Min Temperature 63 °F 49 °F 49 °F (2016)
Cooling Degree Days 10    
Growing Degree Days 26 (Base 50)    
Moisture  
Dew Point 20 °F    
Average Humidity 13    
Maximum Humidity 24    
Minimum Humidity 7    
Precipitation  
Precipitation 0.00 in - - ()
Sea Level Pressure  
Sea Level Pressure 29.77 in    
Wind  
Wind Speed 13 mph (WNW)    
Max Wind Speed 28 mph    
Max Gust Speed 33 mph    
Visibility 10 miles    
Events      
Averages and records for this station are not official NWS values.
T = Trace of Precipitation, MM = Missing Value Source: NWS Daily Summary

Daily Weather History Graph

Daily Weather History Graph

Search for Another Location

Airport or City:

Trip Planner

Search our weather history database for the weather conditions in past years. The results will help you decide how hot, cold, wet, or windy it might be!

Date:

Astronomy

May. 29, 2013 Rise Set
Actual Time 5:58 AM MDT 8:12 PM MDT
Civil Twilight 5:29 AM MDT 8:40 PM MDT
Nautical Twilight 4:54 AM MDT 9:15 PM MDT
Astronomical Twilight 4:16 AM MDT 9:53 PM MDT
Moon No Moon Rise 10:53 AM MDT (5/29)
Length of Visible Light 15h 11m
Length of Day
14h 13m
Waning Gibbous, 72% of the Moon is Illuminated
May 29
Waning Gibbous
May 31
Last Quarter
Jun 8
New
Jun 16
First Quarter
Jun 23
Full

Hourly Weather History & Observations

Time (MDT) Temp. Dew Point Humidity Pressure Visibility Wind Dir Wind Speed Gust Speed Precip Events Conditions
12:15 AM 75.9 °F 10.0 °F 8% 29.76 in 10.0 mi WNW 17.3 mph 25.3 mph N/A   Clear
12:35 AM 75.2 °F 10.2 °F 8% 29.76 in 10.0 mi WNW 18.4 mph 23.0 mph N/A   Clear
12:55 AM 74.5 °F 10.9 °F 9% 29.76 in 10.0 mi WNW 21.9 mph 27.6 mph N/A   Clear
1:15 AM 73.4 °F 10.9 °F 9% 29.76 in 10.0 mi WNW 16.1 mph 25.3 mph N/A   Clear
1:35 AM 72.9 °F 12.4 °F 10% 29.76 in 10.0 mi WNW 13.8 mph 20.7 mph N/A   Clear
1:55 AM 72.0 °F 12.0 °F 10% 29.76 in 10.0 mi WNW 13.8 mph - N/A   Clear
2:15 AM 71.8 °F 12.6 °F 10% 29.77 in 10.0 mi WNW 8.1 mph - N/A   Clear
2:35 AM 70.7 °F 13.8 °F 11% 29.77 in 10.0 mi WNW 5.8 mph - N/A   Clear
2:55 AM 70.3 °F 15.1 °F 12% 29.77 in 10.0 mi North 6.9 mph - N/A   Clear
3:15 AM 69.8 °F 17.1 °F 13% 29.77 in 10.0 mi NW 6.9 mph - N/A   Clear
3:35 AM 70.0 °F 19.6 °F 15% 29.77 in 10.0 mi WNW 11.5 mph 25.3 mph N/A   Clear
3:55 AM 69.1 °F 17.8 °F 14% 29.77 in 10.0 mi NNE 6.9 mph 24.2 mph N/A   Clear
4:15 AM 66.2 °F 16.0 °F 14% 29.77 in 10.0 mi East 5.8 mph - N/A   Clear
4:35 AM 66.9 °F 17.4 °F 15% 29.78 in 10.0 mi NNE 3.5 mph - N/A   Scattered Clouds
4:55 AM 65.3 °F 19.9 °F 18% 29.79 in 10.0 mi Calm Calm - N/A   Scattered Clouds
5:15 AM 64.8 °F 20.5 °F 18% 29.79 in 10.0 mi East 3.5 mph - N/A   Clear
5:35 AM 63.3 °F 21.2 °F 20% 29.79 in 10.0 mi North 6.9 mph - N/A   Clear
5:55 AM 64.6 °F 22.6 °F 20% 29.79 in 10.0 mi North 5.8 mph - N/A   Clear
6:15 AM 63.5 °F 24.3 °F 22% 29.80 in 10.0 mi North 3.5 mph - N/A   Clear
6:35 AM 65.8 °F 27.9 °F 24% 29.80 in 10.0 mi Calm Calm - N/A   Clear
6:55 AM 66.6 °F 26.2 °F 22% 29.81 in 10.0 mi NE 4.6 mph - N/A   Clear
7:15 AM 67.1 °F 28.0 °F 23% 29.81 in 10.0 mi NE 8.1 mph - N/A   Clear
7:35 AM 67.6 °F 28.9 °F 24% 29.81 in 10.0 mi NNE 9.2 mph - N/A   Clear
7:55 AM 70.7 °F 27.9 °F 20% 29.81 in 10.0 mi SSW 3.5 mph - N/A   Clear
8:15 AM 71.6 °F 28.4 °F 20% 29.81 in 10.0 mi SSW 4.6 mph - N/A   Clear
8:35 AM 72.5 °F 29.3 °F 20% 29.81 in 10.0 mi SE 6.9 mph - N/A   Clear
8:55 AM 73.2 °F 29.8 °F 20% 29.81 in 10.0 mi SSE 6.9 mph - N/A   Clear
9:15 AM 73.8 °F 27.3 °F 18% 29.82 in 10.0 mi SSW 8.1 mph - N/A   Clear
9:35 AM 75.6 °F 27.3 °F 17% 29.82 in 10.0 mi West 9.2 mph - N/A   Scattered Clouds
9:55 AM 77.5 °F 25.9 °F 15% 29.81 in 10.0 mi West 13.8 mph 25.3 mph N/A   Scattered Clouds
10:15 AM 78.8 °F 25.5 °F 14% 29.80 in 10.0 mi West 18.4 mph 25.3 mph N/A   Clear
10:35 AM 78.6 °F 22.3 °F 12% 29.80 in 10.0 mi West 20.7 mph 31.1 mph N/A   Clear
10:55 AM 79.3 °F 21.6 °F 12% 29.80 in 10.0 mi West 19.6 mph 25.3 mph N/A   Clear
11:15 AM 80.1 °F 21.9 °F 12% 29.80 in 10.0 mi NNW 10.4 mph 19.6 mph N/A   Clear
11:35 AM 80.8 °F 21.0 °F 11% 29.80 in 10.0 mi West 5.8 mph 18.4 mph N/A   Clear
11:55 AM 80.2 °F 19.6 °F 10% 29.79 in 10.0 mi West 10.4 mph 18.4 mph N/A   Clear
12:15 PM 83.3 °F 17.2 °F 9% 29.79 in 10.0 mi WNW 18.4 mph 28.8 mph N/A   Clear
12:35 PM 83.5 °F 16.2 °F 8% 29.79 in 10.0 mi West 16.1 mph 28.8 mph N/A   Clear
12:55 PM 84.7 °F 17.6 °F 8% 29.78 in 10.0 mi West 15.0 mph 24.2 mph N/A   Clear
1:15 PM 84.4 °F 16.5 °F 8% 29.77 in 10.0 mi West 10.4 mph 23.0 mph N/A   Clear
1:35 PM 84.4 °F 16.2 °F 8% 29.77 in 10.0 mi WNW 13.8 mph 25.3 mph N/A   Clear
1:55 PM 86.5 °F 15.3 °F 7% 29.76 in 10.0 mi NW 17.3 mph 28.8 mph N/A   Clear
2:15 PM 86.0 °F 16.3 °F 8% 29.76 in 10.0 mi NW 23.0 mph 31.1 mph N/A   Clear
2:35 PM 87.8 °F 15.4 °F 7% 29.76 in 10.0 mi WNW 20.7 mph 28.8 mph N/A   Clear
2:55 PM 87.6 °F 14.5 °F 7% 29.75 in 10.0 mi WNW 16.1 mph 29.9 mph N/A   Clear
3:15 PM 86.7 °F 14.5 °F 7% 29.74 in 10.0 mi WNW 19.6 mph 25.3 mph N/A   Clear
3:35 PM 88.2 °F 15.1 °F 7% 29.74 in 10.0 mi NW 23.0 mph 28.8 mph N/A   Clear
3:55 PM 87.3 °F 15.4 °F 7% 29.73 in 10.0 mi WNW 20.7 mph 31.1 mph N/A   Clear
4:15 PM 88.0 °F 15.6 °F 7% 29.72 in 10.0 mi WNW 24.2 mph 33.4 mph N/A   Clear
4:35 PM 87.4 °F 14.4 °F 7% 29.72 in 10.0 mi West 27.6 mph 33.4 mph N/A   Clear
4:55 PM 87.8 °F 16.0 °F 7% 29.71 in 10.0 mi NW 18.4 mph 31.1 mph N/A   Clear
5:15 PM 87.6 °F 16.0 °F 7% 29.70 in 10.0 mi WNW 23.0 mph 33.4 mph N/A   Clear
5:35 PM 87.4 °F 19.2 °F 8% 29.70 in 10.0 mi NW 20.7 mph 27.6 mph N/A   Clear
5:55 PM 86.9 °F 19.9 °F 9% 29.70 in 10.0 mi WNW 19.6 mph 25.3 mph N/A   Clear
6:15 PM 85.3 °F 20.3 °F 9% 29.70 in 10.0 mi NW 19.6 mph 26.5 mph N/A   Clear
6:35 PM 84.2 °F 20.3 °F 9% 29.71 in 10.0 mi WNW 12.7 mph 23.0 mph N/A   Clear
6:55 PM 83.3 °F 20.7 °F 10% 29.70 in 10.0 mi West 9.2 mph 19.6 mph N/A   Clear
7:15 PM 82.9 °F 21.2 °F 10% 29.71 in 10.0 mi WNW 12.7 mph 17.3 mph N/A   Clear
7:35 PM 82.6 °F 21.7 °F 11% 29.71 in 10.0 mi WNW 12.7 mph 26.5 mph N/A   Clear
7:55 PM 81.5 °F 21.4 °F 11% 29.71 in 10.0 mi WNW 19.6 mph 26.5 mph N/A   Clear
8:15 PM 80.4 °F 21.2 °F 11% 29.73 in 10.0 mi WNW 18.4 mph 24.2 mph N/A   Clear
8:35 PM 79.7 °F 21.7 °F 12% 29.74 in 10.0 mi WNW 15.0 mph 19.6 mph N/A   Clear
8:55 PM 78.3 °F 21.9 °F 12% 29.74 in 10.0 mi WNW 12.7 mph 19.6 mph N/A   Clear
9:15 PM 78.6 °F 22.6 °F 13% 29.75 in 10.0 mi WNW 12.7 mph 24.2 mph N/A   Clear
9:35 PM 77.5 °F 23.0 °F 13% 29.76 in 10.0 mi NW 10.4 mph - N/A   Clear
9:55 PM 76.8 °F 23.0 °F 14% 29.77 in 10.0 mi NW 11.5 mph - N/A   Clear
10:15 PM 75.7 °F 23.4 °F 14% 29.78 in 10.0 mi WNW 9.2 mph - N/A   Clear
10:35 PM 76.1 °F 23.0 °F 14% 29.78 in 10.0 mi WNW 9.2 mph - N/A   Clear
10:55 PM 73.8 °F 22.5 °F 15% 29.79 in 10.0 mi WNW 8.1 mph - N/A   Clear
11:15 PM 75.4 °F 23.5 °F 14% 29.80 in 10.0 mi NW 10.4 mph - N/A   Clear
11:35 PM 75.2 °F 26.4 °F 16% 29.80 in 10.0 mi West 12.7 mph 17.3 mph N/A   Clear
11:55 PM 75.2 °F 29.8 °F 19% 29.81 in 10.0 mi WNW 12.7 mph 20.7 mph N/A   Clear